#datetime,building,power
2023-02-11T00:00:00,mfh,48.72
2023-02-11T00:01:00,mfh,48.82
2023-02-11T00:02:00,mfh,47.70
2023-02-11T00:03:00,mfh,46.86
2023-02-11T00:04:00,mfh,47.06
2023-02-11T00:05:00,mfh,46.86
2023-02-11T00:06:00,mfh,47.57
2023-02-11T00:07:00,mfh,54.55
2023-02-11T00:08:00,mfh,62.88
2023-02-11T00:09:00,mfh,62.65
2023-02-11T00:10:00,mfh,62.23
2023-02-11T00:11:00,mfh,61.92
2023-02-11T00:12:00,mfh,61.23
2023-02-11T00:13:00,mfh,60.70
2023-02-11T00:14:00,mfh,60.37
2023-02-11T00:15:00,mfh,61.00
2023-02-11T00:16:00,mfh,60.86
2023-02-11T00:17:00,mfh,60.82
2023-02-11T00:18:00,mfh,60.62
2023-02-11T00:19:00,mfh,61.15
2023-02-11T00:20:00,mfh,60.46
2023-02-11T00:21:00,mfh,59.73
2023-02-11T00:22:00,mfh,59.60
2023-02-11T00:23:00,mfh,59.54
2023-02-11T00:24:00,mfh,46.36
2023-02-11T00:25:00,mfh,46.39
2023-02-11T00:26:00,mfh,46.31
2023-02-11T00:27:00,mfh,46.34
2023-02-11T00:28:00,mfh,46.40
2023-02-11T00:29:00,mfh,46.34
2023-02-11T00:30:00,mfh,47.97
2023-02-11T00:31:00,mfh,46.37
2023-02-11T00:32:00,mfh,46.39
2023-02-11T00:33:00,mfh,46.46
2023-02-11T00:34:00,mfh,47.08
2023-02-11T00:35:00,mfh,48.80
2023-02-11T00:36:00,mfh,48.13
2023-02-11T00:37:00,mfh,48.21
2023-02-11T00:38:00,mfh,48.07
2023-02-11T00:39:00,mfh,48.41
2023-02-11T00:40:00,mfh,47.49
2023-02-11T00:41:00,mfh,45.81
2023-02-11T00:42:00,mfh,45.93
2023-02-11T00:43:00,mfh,46.46
2023-02-11T00:44:00,mfh,46.53
2023-02-11T00:45:00,mfh,46.48
2023-02-11T00:46:00,mfh,48.45
2023-02-11T00:47:00,mfh,48.46
2023-02-11T00:48:00,mfh,48.73
2023-02-11T00:49:00,mfh,47.77
2023-02-11T00:50:00,mfh,47.77
2023-02-11T00:51:00,mfh,47.72
2023-02-11T00:52:00,mfh,48.34
2023-02-11T00:53:00,mfh,48.34
2023-02-11T00:54:00,mfh,49.78
2023-02-11T00:55:00,mfh,48.97
2023-02-11T00:56:00,mfh,48.81
2023-02-11T00:57:00,mfh,47.41
2023-02-11T00:58:00,mfh,47.41
2023-02-11T00:59:00,mfh,48.37
2023-02-11T01:00:00,mfh,48.45
2023-02-11T01:01:00,mfh,49.07
2023-02-11T01:02:00,mfh,49.07
2023-02-11T01:03:00,mfh,47.19
2023-02-11T01:04:00,mfh,47.20
2023-02-11T01:05:00,mfh,48.33
2023-02-11T01:06:00,mfh,47.95
2023-02-11T01:07:00,mfh,46.77
2023-02-11T01:08:00,mfh,46.76
2023-02-11T01:09:00,mfh,46.77
2023-02-11T01:10:00,mfh,47.36
2023-02-11T01:11:00,mfh,47.43
2023-02-11T01:12:00,mfh,47.46
2023-02-11T01:13:00,mfh,47.61
2023-02-11T01:14:00,mfh,47.47
2023-02-11T01:15:00,mfh,47.48
2023-02-11T01:16:00,mfh,47.35
2023-02-11T01:17:00,mfh,47.02
2023-02-11T01:18:00,mfh,47.01
2023-02-11T01:19:00,mfh,47.64
2023-02-11T01:20:00,mfh,47.80
2023-02-11T01:21:00,mfh,47.53
2023-02-11T01:22:00,mfh,47.74
2023-02-11T01:23:00,mfh,48.55
2023-02-11T01:24:00,mfh,47.76
2023-02-11T01:25:00,mfh,47.09
2023-02-11T01:26:00,mfh,47.06
2023-02-11T01:27:00,mfh,47.07
2023-02-11T01:28:00,mfh,47.12
2023-02-11T01:29:00,mfh,47.75
2023-02-11T01:30:00,mfh,47.78
2023-02-11T01:31:00,mfh,47.81
2023-02-11T01:32:00,mfh,47.80
2023-02-11T01:33:00,mfh,47.57
2023-02-11T01:34:00,mfh,46.98
2023-02-11T01:35:00,mfh,46.99
2023-02-11T01:36:00,mfh,46.97
2023-02-11T01:37:00,mfh,48.69
2023-02-11T01:38:00,mfh,47.70
2023-02-11T01:39:00,mfh,47.70
2023-02-11T01:40:00,mfh,47.67
2023-02-11T01:41:00,mfh,47.90
2023-02-11T01:42:00,mfh,47.88
2023-02-11T01:43:00,mfh,47.98
2023-02-11T01:44:00,mfh,47.31
2023-02-11T01:45:00,mfh,47.39
2023-02-11T01:46:00,mfh,47.38
2023-02-11T01:47:00,mfh,48.10
2023-02-11T01:48:00,mfh,47.90
2023-02-11T01:49:00,mfh,48.16
2023-02-11T01:50:00,mfh,48.11
2023-02-11T01:51:00,mfh,48.75
2023-02-11T01:52:00,mfh,48.63
2023-02-11T01:53:00,mfh,47.47
2023-02-11T01:54:00,mfh,48.04
2023-02-11T01:55:00,mfh,49.44
2023-02-11T01:56:00,mfh,48.03
2023-02-11T01:57:00,mfh,48.07
2023-02-11T01:58:00,mfh,48.04
2023-02-11T01:59:00,mfh,59.52
2023-02-11T02:00:00,mfh,61.93
2023-02-11T02:01:00,mfh,61.72
2023-02-11T02:02:00,mfh,61.47
2023-02-11T02:03:00,mfh,61.31
2023-02-11T02:04:00,mfh,60.54
2023-02-11T02:05:00,mfh,60.25
2023-02-11T02:06:00,mfh,60.72
2023-02-11T02:07:00,mfh,60.48
2023-02-11T02:08:00,mfh,62.85
2023-02-11T02:09:00,mfh,62.11
2023-02-11T02:10:00,mfh,62.79
2023-02-11T02:11:00,mfh,62.00
2023-02-11T02:12:00,mfh,62.03
2023-02-11T02:13:00,mfh,61.92
2023-02-11T02:14:00,mfh,62.90
2023-02-11T02:15:00,mfh,62.09
2023-02-11T02:16:00,mfh,55.77
2023-02-11T02:17:00,mfh,55.69
2023-02-11T02:18:00,mfh,55.75
2023-02-11T02:19:00,mfh,49.07
2023-02-11T02:20:00,mfh,48.37
2023-02-11T02:21:00,mfh,48.38
2023-02-11T02:22:00,mfh,48.37
2023-02-11T02:23:00,mfh,48.82
2023-02-11T02:24:00,mfh,49.14
2023-02-11T02:25:00,mfh,47.31
2023-02-11T02:26:00,mfh,47.39
2023-02-11T02:27:00,mfh,47.25
2023-02-11T02:28:00,mfh,48.09
2023-02-11T02:29:00,mfh,46.76
2023-02-11T02:30:00,mfh,47.02
2023-02-11T02:31:00,mfh,46.81
2023-02-11T02:32:00,mfh,47.38
2023-02-11T02:33:00,mfh,47.84
2023-02-11T02:34:00,mfh,47.98
2023-02-11T02:35:00,mfh,47.86
2023-02-11T02:36:00,mfh,47.83
2023-02-11T02:37:00,mfh,49.01
2023-02-11T02:38:00,mfh,47.84
2023-02-11T02:39:00,mfh,47.16
2023-02-11T02:40:00,mfh,47.68
2023-02-11T02:41:00,mfh,47.34
2023-02-11T02:42:00,mfh,47.86
2023-02-11T02:43:00,mfh,48.00
2023-02-11T02:44:00,mfh,47.59
2023-02-11T02:45:00,mfh,47.73
2023-02-11T02:46:00,mfh,47.96
2023-02-11T02:47:00,mfh,47.78
2023-02-11T02:48:00,mfh,47.07
2023-02-11T02:49:00,mfh,47.10
2023-02-11T02:50:00,mfh,47.51
2023-02-11T02:51:00,mfh,47.81
2023-02-11T02:52:00,mfh,47.82
2023-02-11T02:53:00,mfh,47.90
2023-02-11T02:54:00,mfh,47.96
2023-02-11T02:55:00,mfh,48.37
2023-02-11T02:56:00,mfh,47.96
2023-02-11T02:57:00,mfh,47.33
2023-02-11T02:58:00,mfh,47.14
2023-02-11T02:59:00,mfh,48.35
2023-02-11T03:00:00,mfh,47.75
2023-02-11T03:01:00,mfh,47.81
2023-02-11T03:02:00,mfh,48.04
2023-02-11T03:03:00,mfh,48.39
2023-02-11T03:04:00,mfh,48.67
2023-02-11T03:05:00,mfh,48.07
2023-02-11T03:06:00,mfh,47.40
2023-02-11T03:07:00,mfh,47.52
2023-02-11T03:08:00,mfh,47.61
2023-02-11T03:09:00,mfh,48.28
2023-02-11T03:10:00,mfh,48.52
2023-02-11T03:11:00,mfh,48.57
2023-02-11T03:12:00,mfh,47.83
2023-02-11T03:13:00,mfh,48.21
2023-02-11T03:14:00,mfh,47.85
2023-02-11T03:15:00,mfh,47.84
2023-02-11T03:16:00,mfh,47.40
2023-02-11T03:17:00,mfh,47.36
2023-02-11T03:18:00,mfh,47.46
2023-02-11T03:19:00,mfh,48.10
2023-02-11T03:20:00,mfh,48.24
2023-02-11T03:21:00,mfh,48.95
2023-02-11T03:22:00,mfh,48.19
2023-02-11T03:23:00,mfh,48.18
2023-02-11T03:24:00,mfh,47.58
2023-02-11T03:25:00,mfh,47.55
2023-02-11T03:26:00,mfh,48.25
2023-02-11T03:27:00,mfh,50.06
2023-02-11T03:28:00,mfh,50.09
2023-02-11T03:29:00,mfh,50.66
2023-02-11T03:30:00,mfh,50.52
2023-02-11T03:31:00,mfh,49.94
2023-02-11T03:32:00,mfh,50.58
2023-02-11T03:33:00,mfh,49.65
2023-02-11T03:34:00,mfh,49.57
2023-02-11T03:35:00,mfh,49.55
2023-02-11T03:36:00,mfh,50.16
2023-02-11T03:37:00,mfh,50.19
2023-02-11T03:38:00,mfh,50.20
2023-02-11T03:39:00,mfh,50.08
2023-02-11T03:40:00,mfh,50.16
2023-02-11T03:41:00,mfh,50.74
2023-02-11T03:42:00,mfh,49.53
2023-02-11T03:43:00,mfh,50.17
2023-02-11T03:44:00,mfh,49.50
2023-02-11T03:45:00,mfh,48.29
2023-02-11T03:46:00,mfh,48.26
2023-02-11T03:47:00,mfh,48.20
2023-02-11T03:48:00,mfh,48.24
2023-02-11T03:49:00,mfh,48.04
2023-02-11T03:50:00,mfh,48.00
2023-02-11T03:51:00,mfh,48.97
2023-02-11T03:52:00,mfh,48.59
2023-02-11T03:53:00,mfh,48.11
2023-02-11T03:54:00,mfh,48.26
2023-02-11T03:55:00,mfh,48.89
2023-02-11T03:56:00,mfh,49.12
2023-02-11T03:57:00,mfh,49.03
2023-02-11T03:58:00,mfh,48.17
2023-02-11T03:59:00,mfh,48.24
2023-02-11T04:00:00,mfh,47.54
2023-02-11T04:01:00,mfh,47.52
2023-02-11T04:02:00,mfh,47.90
2023-02-11T04:03:00,mfh,48.32
2023-02-11T04:04:00,mfh,48.18
2023-02-11T04:05:00,mfh,48.15
2023-02-11T04:06:00,mfh,48.22
2023-02-11T04:07:00,mfh,48.51
2023-02-11T04:08:00,mfh,48.89
2023-02-11T04:09:00,mfh,48.87
2023-02-11T04:10:00,mfh,47.81
2023-02-11T04:11:00,mfh,47.78
2023-02-11T04:12:00,mfh,47.71
2023-02-11T04:13:00,mfh,48.20
2023-02-11T04:14:00,mfh,48.07
2023-02-11T04:15:00,mfh,48.65
2023-02-11T04:16:00,mfh,48.69
2023-02-11T04:17:00,mfh,48.63
2023-02-11T04:18:00,mfh,47.72
2023-02-11T04:19:00,mfh,47.73
2023-02-11T04:20:00,mfh,48.67
2023-02-11T04:21:00,mfh,48.37
2023-02-11T04:22:00,mfh,48.38
2023-02-11T04:23:00,mfh,48.48
2023-02-11T04:24:00,mfh,48.46
2023-02-11T04:25:00,mfh,48.43
2023-02-11T04:26:00,mfh,48.51
2023-02-11T04:27:00,mfh,48.51
2023-02-11T04:28:00,mfh,47.85
2023-02-11T04:29:00,mfh,48.50
2023-02-11T04:30:00,mfh,48.06
2023-02-11T04:31:00,mfh,48.52
2023-02-11T04:32:00,mfh,48.35
2023-02-11T04:33:00,mfh,48.30
2023-02-11T04:34:00,mfh,48.33
2023-02-11T04:35:00,mfh,48.46
2023-02-11T04:36:00,mfh,48.50
2023-02-11T04:37:00,mfh,47.66
2023-02-11T04:38:00,mfh,49.22
2023-02-11T04:39:00,mfh,49.44
2023-02-11T04:40:00,mfh,50.10
2023-02-11T04:41:00,mfh,50.17
2023-02-11T04:42:00,mfh,50.26
2023-02-11T04:43:00,mfh,50.25
2023-02-11T04:44:00,mfh,50.53
2023-02-11T04:45:00,mfh,50.68
2023-02-11T04:46:00,mfh,51.02
2023-02-11T04:47:00,mfh,49.98
2023-02-11T04:48:00,mfh,49.80
2023-02-11T04:49:00,mfh,52.14
2023-02-11T04:50:00,mfh,51.02
2023-02-11T04:51:00,mfh,50.89
2023-02-11T04:52:00,mfh,70.76
2023-02-11T04:53:00,mfh,71.02
2023-02-11T04:54:00,mfh,71.74
2023-02-11T04:55:00,mfh,70.77
2023-02-11T04:56:00,mfh,70.47
2023-02-11T04:57:00,mfh,70.13
2023-02-11T04:58:00,mfh,70.44
2023-02-11T04:59:00,mfh,69.88
2023-02-11T05:00:00,mfh,70.22
2023-02-11T05:01:00,mfh,83.56
2023-02-11T05:02:00,mfh,85.75
2023-02-11T05:03:00,mfh,85.35
2023-02-11T05:04:00,mfh,85.30
2023-02-11T05:05:00,mfh,84.78
2023-02-11T05:06:00,mfh,84.81
2023-02-11T05:07:00,mfh,84.71
2023-02-11T05:08:00,mfh,84.34
2023-02-11T05:09:00,mfh,79.33
2023-02-11T05:10:00,mfh,72.85
2023-02-11T05:11:00,mfh,68.06
2023-02-11T05:12:00,mfh,68.76
2023-02-11T05:13:00,mfh,68.62
2023-02-11T05:14:00,mfh,67.88
2023-02-11T05:15:00,mfh,67.96
2023-02-11T05:16:00,mfh,68.68
2023-02-11T05:17:00,mfh,69.61
2023-02-11T05:18:00,mfh,68.62
2023-02-11T05:19:00,mfh,68.82
2023-02-11T05:20:00,mfh,69.03
2023-02-11T05:21:00,mfh,69.24
2023-02-11T05:22:00,mfh,69.09
2023-02-11T05:23:00,mfh,68.18
2023-02-11T05:24:00,mfh,68.24
2023-02-11T05:25:00,mfh,68.37
2023-02-11T05:26:00,mfh,68.87
2023-02-11T05:27:00,mfh,69.03
2023-02-11T05:28:00,mfh,68.98
2023-02-11T05:29:00,mfh,70.53
2023-02-11T05:30:00,mfh,70.90
2023-02-11T05:31:00,mfh,69.73
2023-02-11T05:32:00,mfh,69.76
2023-02-11T05:33:00,mfh,69.06
2023-02-11T05:34:00,mfh,69.69
2023-02-11T05:35:00,mfh,69.37
2023-02-11T05:36:00,mfh,69.95
2023-02-11T05:37:00,mfh,69.44
2023-02-11T05:38:00,mfh,70.39
2023-02-11T05:39:00,mfh,70.32
2023-02-11T05:40:00,mfh,69.57
2023-02-11T05:41:00,mfh,69.80
2023-02-11T05:42:00,mfh,68.78
2023-02-11T05:43:00,mfh,69.35
2023-02-11T05:44:00,mfh,69.53
2023-02-11T05:45:00,mfh,69.45
2023-02-11T05:46:00,mfh,69.70
2023-02-11T05:47:00,mfh,69.76
2023-02-11T05:48:00,mfh,69.25
2023-02-11T05:49:00,mfh,68.42
2023-02-11T05:50:00,mfh,68.62
2023-02-11T05:51:00,mfh,67.93
2023-02-11T05:52:00,mfh,68.53
2023-02-11T05:53:00,mfh,68.42
2023-02-11T05:54:00,mfh,68.49
2023-02-11T05:55:00,mfh,68.60
2023-02-11T05:56:00,mfh,68.38
2023-02-11T05:57:00,mfh,68.64
2023-02-11T05:58:00,mfh,67.98
2023-02-11T05:59:00,mfh,68.51
2023-02-11T06:00:00,mfh,68.02
2023-02-11T06:01:00,mfh,67.96
2023-02-11T06:02:00,mfh,67.95
2023-02-11T06:03:00,mfh,68.26
2023-02-11T06:04:00,mfh,67.99
2023-02-11T06:05:00,mfh,72.76
2023-02-11T06:06:00,mfh,69.07
2023-02-11T06:07:00,mfh,69.22
2023-02-11T06:08:00,mfh,69.21
2023-02-11T06:09:00,mfh,69.12
2023-02-11T06:10:00,mfh,69.75
2023-02-11T06:11:00,mfh,69.59
2023-02-11T06:12:00,mfh,69.57
2023-02-11T06:13:00,mfh,69.69
2023-02-11T06:14:00,mfh,69.35
2023-02-11T06:15:00,mfh,69.31
2023-02-11T06:16:00,mfh,68.85
2023-02-11T06:17:00,mfh,69.84
2023-02-11T06:18:00,mfh,68.88
2023-02-11T06:19:00,mfh,69.32
2023-02-11T06:20:00,mfh,69.33
2023-02-11T06:21:00,mfh,69.26
2023-02-11T06:22:00,mfh,69.29
2023-02-11T06:23:00,mfh,69.27
2023-02-11T06:24:00,mfh,67.40
2023-02-11T06:25:00,mfh,66.67
2023-02-11T06:26:00,mfh,66.72
2023-02-11T06:27:00,mfh,66.75
2023-02-11T06:28:00,mfh,67.40
2023-02-11T06:29:00,mfh,67.39
2023-02-11T06:30:00,mfh,67.56
2023-02-11T06:31:00,mfh,67.75
2023-02-11T06:32:00,mfh,69.55
2023-02-11T06:33:00,mfh,67.52
2023-02-11T06:34:00,mfh,67.21
2023-02-11T06:35:00,mfh,67.17
2023-02-11T06:36:00,mfh,67.93
2023-02-11T06:37:00,mfh,67.90
2023-02-11T06:38:00,mfh,67.63
2023-02-11T06:39:00,mfh,68.33
2023-02-11T06:40:00,mfh,67.76
2023-02-11T06:41:00,mfh,68.18
2023-02-11T06:42:00,mfh,67.27
2023-02-11T06:43:00,mfh,67.23
2023-02-11T06:44:00,mfh,67.33
2023-02-11T06:45:00,mfh,67.32
2023-02-11T06:46:00,mfh,67.89
2023-02-11T06:47:00,mfh,67.99
2023-02-11T06:48:00,mfh,68.07
2023-02-11T06:49:00,mfh,68.08
2023-02-11T06:50:00,mfh,68.03
2023-02-11T06:51:00,mfh,67.00
2023-02-11T06:52:00,mfh,66.95
2023-02-11T06:53:00,mfh,67.04
2023-02-11T06:54:00,mfh,66.89
2023-02-11T06:55:00,mfh,67.52
2023-02-11T06:56:00,mfh,67.61
2023-02-11T06:57:00,mfh,67.33
2023-02-11T06:58:00,mfh,68.20
2023-02-11T06:59:00,mfh,81.13
2023-02-11T07:00:00,mfh,81.27
2023-02-11T07:01:00,mfh,81.17
2023-02-11T07:02:00,mfh,81.07
2023-02-11T07:03:00,mfh,81.34
2023-02-11T07:04:00,mfh,81.24
2023-02-11T07:05:00,mfh,80.86
2023-02-11T07:06:00,mfh,80.59
2023-02-11T07:07:00,mfh,81.08
2023-02-11T07:08:00,mfh,80.22
2023-02-11T07:09:00,mfh,79.79
2023-02-11T07:10:00,mfh,79.58
2023-02-11T07:11:00,mfh,80.20
2023-02-11T07:12:00,mfh,80.16
2023-02-11T07:13:00,mfh,80.67
2023-02-11T07:14:00,mfh,80.57
2023-02-11T07:15:00,mfh,80.50
2023-02-11T07:16:00,mfh,67.45
2023-02-11T07:17:00,mfh,66.82
2023-02-11T07:18:00,mfh,65.97
2023-02-11T07:19:00,mfh,66.09
2023-02-11T07:20:00,mfh,65.99
2023-02-11T07:21:00,mfh,66.92
2023-02-11T07:22:00,mfh,66.88
2023-02-11T07:23:00,mfh,67.03
2023-02-11T07:24:00,mfh,67.19
2023-02-11T07:25:00,mfh,67.20
2023-02-11T07:26:00,mfh,66.50
2023-02-11T07:27:00,mfh,69.00
2023-02-11T07:28:00,mfh,68.50
2023-02-11T07:29:00,mfh,69.07
2023-02-11T07:30:00,mfh,69.08
2023-02-11T07:31:00,mfh,69.06
2023-02-11T07:32:00,mfh,69.12
2023-02-11T07:33:00,mfh,69.44
2023-02-11T07:34:00,mfh,69.31
2023-02-11T07:35:00,mfh,68.59
2023-02-11T07:36:00,mfh,68.73
2023-02-11T07:37:00,mfh,68.75
2023-02-11T07:38:00,mfh,69.38
2023-02-11T07:39:00,mfh,69.32
2023-02-11T07:40:00,mfh,69.14
2023-02-11T07:41:00,mfh,69.19
2023-02-11T07:42:00,mfh,69.11
2023-02-11T07:43:00,mfh,69.10
2023-02-11T07:44:00,mfh,68.30
2023-02-11T07:45:00,mfh,66.37
2023-02-11T07:46:00,mfh,66.45
2023-02-11T07:47:00,mfh,67.32
2023-02-11T07:48:00,mfh,67.02
2023-02-11T07:49:00,mfh,66.86
2023-02-11T07:50:00,mfh,66.90
2023-02-11T07:51:00,mfh,66.69
2023-02-11T07:52:00,mfh,66.71
2023-02-11T07:53:00,mfh,66.25
2023-02-11T07:54:00,mfh,66.47
2023-02-11T07:55:00,mfh,66.72
2023-02-11T07:56:00,mfh,67.48
2023-02-11T07:57:00,mfh,67.32
2023-02-11T07:58:00,mfh,67.06
2023-02-11T07:59:00,mfh,67.09
2023-02-11T08:00:00,mfh,66.99
2023-02-11T08:01:00,mfh,66.30
2023-02-11T08:02:00,mfh,66.95
2023-02-11T08:03:00,mfh,66.87
2023-02-11T08:04:00,mfh,66.24
2023-02-11T08:05:00,mfh,66.93
2023-02-11T08:06:00,mfh,67.89
2023-02-11T08:07:00,mfh,67.26
2023-02-11T08:08:00,mfh,66.97
2023-02-11T08:09:00,mfh,67.02
2023-02-11T08:10:00,mfh,66.89
2023-02-11T08:11:00,mfh,66.49
2023-02-11T08:12:00,mfh,66.17
2023-02-11T08:13:00,mfh,66.21
2023-02-11T08:14:00,mfh,66.70
2023-02-11T08:15:00,mfh,66.59
2023-02-11T08:16:00,mfh,66.43
2023-02-11T08:17:00,mfh,66.66
2023-02-11T08:18:00,mfh,66.59
2023-02-11T08:19:00,mfh,66.69
2023-02-11T08:20:00,mfh,66.06
2023-02-11T08:21:00,mfh,65.90
2023-02-11T08:22:00,mfh,66.70
2023-02-11T08:23:00,mfh,66.82
2023-02-11T08:24:00,mfh,66.65
2023-02-11T08:25:00,mfh,67.34
2023-02-11T08:26:00,mfh,66.72
2023-02-11T08:27:00,mfh,66.55
2023-02-11T08:28:00,mfh,65.98
2023-02-11T08:29:00,mfh,66.24
2023-02-11T08:30:00,mfh,66.20
2023-02-11T08:31:00,mfh,72.81
2023-02-11T08:32:00,mfh,72.88
2023-02-11T08:33:00,mfh,73.45
2023-02-11T08:34:00,mfh,72.73
2023-02-11T08:35:00,mfh,72.84
2023-02-11T08:36:00,mfh,72.93
2023-02-11T08:37:00,mfh,72.75
2023-02-11T08:38:00,mfh,72.73
2023-02-11T08:39:00,mfh,73.11
2023-02-11T08:40:00,mfh,72.32
2023-02-11T08:41:00,mfh,72.52
2023-02-11T08:42:00,mfh,73.12
2023-02-11T08:43:00,mfh,73.23
2023-02-11T08:44:00,mfh,73.29
2023-02-11T08:45:00,mfh,74.45
2023-02-11T08:46:00,mfh,74.31
2023-02-11T08:47:00,mfh,74.75
2023-02-11T08:48:00,mfh,74.31
2023-02-11T08:49:00,mfh,74.55
2023-02-11T08:50:00,mfh,74.33
2023-02-11T08:51:00,mfh,74.39
2023-02-11T08:52:00,mfh,74.66
2023-02-11T08:53:00,mfh,74.82
2023-02-11T08:54:00,mfh,75.63
2023-02-11T08:55:00,mfh,74.60
2023-02-11T08:56:00,mfh,75.10
2023-02-11T08:57:00,mfh,76.93
2023-02-11T08:58:00,mfh,77.18
2023-02-11T08:59:00,mfh,76.38
2023-02-11T09:00:00,mfh,76.35
2023-02-11T09:01:00,mfh,76.23
2023-02-11T09:02:00,mfh,75.45
2023-02-11T09:03:00,mfh,83.45
2023-02-11T09:04:00,mfh,83.48
2023-02-11T09:05:00,mfh,84.48
2023-02-11T09:06:00,mfh,84.49
2023-02-11T09:07:00,mfh,84.76
2023-02-11T09:08:00,mfh,84.49
2023-02-11T09:09:00,mfh,84.83
2023-02-11T09:10:00,mfh,84.83
2023-02-11T09:11:00,mfh,85.48
2023-02-11T09:12:00,mfh,85.80
2023-02-11T09:13:00,mfh,85.87
2023-02-11T09:14:00,mfh,85.73
2023-02-11T09:15:00,mfh,85.66
2023-02-11T09:16:00,mfh,85.49
2023-02-11T09:17:00,mfh,84.17
2023-02-11T09:18:00,mfh,84.04
2023-02-11T09:19:00,mfh,84.19
2023-02-11T09:20:00,mfh,83.79
2023-02-11T09:21:00,mfh,83.62
2023-02-11T09:22:00,mfh,84.21
2023-02-11T09:23:00,mfh,84.73
2023-02-11T09:24:00,mfh,84.53
2023-02-11T09:25:00,mfh,84.30
2023-02-11T09:26:00,mfh,84.28
2023-02-11T09:27:00,mfh,84.53
2023-02-11T09:28:00,mfh,84.61
2023-02-11T09:29:00,mfh,84.64
2023-02-11T09:30:00,mfh,84.53
2023-02-11T09:31:00,mfh,84.49
2023-02-11T09:32:00,mfh,84.15
2023-02-11T09:33:00,mfh,84.23
2023-02-11T09:34:00,mfh,84.60
2023-02-11T09:35:00,mfh,84.39
2023-02-11T09:36:00,mfh,84.19
2023-02-11T09:37:00,mfh,84.08
2023-02-11T09:38:00,mfh,84.41
2023-02-11T09:39:00,mfh,84.80
2023-02-11T09:40:00,mfh,84.48
2023-02-11T09:41:00,mfh,84.74
2023-02-11T09:42:00,mfh,84.05
2023-02-11T09:43:00,mfh,84.23
2023-02-11T09:44:00,mfh,84.15
2023-02-11T09:45:00,mfh,84.01
2023-02-11T09:46:00,mfh,83.21
2023-02-11T09:47:00,mfh,83.25
2023-02-11T09:48:00,mfh,83.66
2023-02-11T09:49:00,mfh,83.90
2023-02-11T09:50:00,mfh,84.19
2023-02-11T09:51:00,mfh,84.12
2023-02-11T09:52:00,mfh,84.10
2023-02-11T09:53:00,mfh,83.81
2023-02-11T09:54:00,mfh,83.89
2023-02-11T09:55:00,mfh,83.79
2023-02-11T09:56:00,mfh,83.88
2023-02-11T09:57:00,mfh,83.79
2023-02-11T09:58:00,mfh,83.42
2023-02-11T09:59:00,mfh,83.29
2023-02-11T10:00:00,mfh,83.45
2023-02-11T10:01:00,mfh,83.39
2023-02-11T10:02:00,mfh,83.45
2023-02-11T10:03:00,mfh,83.52
2023-02-11T10:04:00,mfh,85.12
2023-02-11T10:05:00,mfh,88.42
2023-02-11T10:06:00,mfh,88.69
2023-02-11T10:07:00,mfh,88.61
2023-02-11T10:08:00,mfh,90.57
2023-02-11T10:09:00,mfh,90.72
2023-02-11T10:10:00,mfh,90.45
2023-02-11T10:11:00,mfh,90.28
2023-02-11T10:12:00,mfh,90.22
2023-02-11T10:13:00,mfh,90.19
2023-02-11T10:14:00,mfh,90.07
2023-02-11T10:15:00,mfh,90.20
2023-02-11T10:16:00,mfh,90.17
2023-02-11T10:17:00,mfh,89.91
2023-02-11T10:18:00,mfh,89.72
2023-02-11T10:19:00,mfh,89.70
2023-02-11T10:20:00,mfh,89.82
2023-02-11T10:21:00,mfh,89.81
2023-02-11T10:22:00,mfh,89.70
2023-02-11T10:23:00,mfh,89.73
2023-02-11T10:24:00,mfh,89.67
2023-02-11T10:25:00,mfh,89.45
2023-02-11T10:26:00,mfh,89.51
2023-02-11T10:27:00,mfh,89.66
2023-02-11T10:28:00,mfh,89.60
2023-02-11T10:29:00,mfh,89.76
2023-02-11T10:30:00,mfh,89.58
2023-02-11T10:31:00,mfh,89.75
2023-02-11T10:32:00,mfh,89.66
2023-02-11T10:33:00,mfh,89.44
2023-02-11T10:34:00,mfh,89.45
2023-02-11T10:35:00,mfh,89.50
2023-02-11T10:36:00,mfh,89.31
2023-02-11T10:37:00,mfh,89.45
2023-02-11T10:38:00,mfh,89.59
2023-02-11T10:39:00,mfh,89.75
2023-02-11T10:40:00,mfh,89.62
2023-02-11T10:41:00,mfh,89.59
2023-02-11T10:42:00,mfh,89.53
2023-02-11T10:43:00,mfh,89.52
2023-02-11T10:44:00,mfh,89.40
2023-02-11T10:45:00,mfh,89.38
2023-02-11T10:46:00,mfh,89.33
2023-02-11T10:47:00,mfh,89.39
2023-02-11T10:48:00,mfh,89.36
2023-02-11T10:49:00,mfh,89.33
2023-02-11T10:50:00,mfh,89.44
2023-02-11T10:51:00,mfh,89.28
2023-02-11T10:52:00,mfh,89.11
2023-02-11T10:53:00,mfh,89.04
2023-02-11T10:54:00,mfh,89.30
2023-02-11T10:55:00,mfh,89.10
2023-02-11T10:56:00,mfh,89.20
2023-02-11T10:57:00,mfh,89.36
2023-02-11T10:58:00,mfh,89.21
2023-02-11T10:59:00,mfh,89.06
2023-02-11T11:00:00,mfh,89.23
2023-02-11T11:01:00,mfh,89.33
2023-02-11T11:02:00,mfh,89.12
2023-02-11T11:03:00,mfh,89.07
2023-02-11T11:04:00,mfh,89.04
2023-02-11T11:05:00,mfh,89.17
2023-02-11T11:06:00,mfh,89.16
2023-02-11T11:07:00,mfh,88.87
2023-02-11T11:08:00,mfh,89.20
2023-02-11T11:09:00,mfh,89.28
2023-02-11T11:10:00,mfh,89.18
2023-02-11T11:11:00,mfh,89.31
2023-02-11T11:12:00,mfh,89.06
2023-02-11T11:13:00,mfh,89.13
2023-02-11T11:14:00,mfh,89.16
2023-02-11T11:15:00,mfh,89.06
2023-02-11T11:16:00,mfh,89.00
2023-02-11T11:17:00,mfh,88.88
2023-02-11T11:18:00,mfh,88.96
2023-02-11T11:19:00,mfh,88.81
2023-02-11T11:20:00,mfh,88.89
2023-02-11T11:21:00,mfh,89.30
2023-02-11T11:22:00,mfh,89.29
2023-02-11T11:23:00,mfh,89.30
2023-02-11T11:24:00,mfh,89.29
2023-02-11T11:25:00,mfh,89.32
2023-02-11T11:26:00,mfh,89.34
2023-02-11T11:27:00,mfh,89.34
2023-02-11T11:28:00,mfh,89.44
2023-02-11T11:29:00,mfh,89.30
2023-02-11T11:30:00,mfh,89.31
2023-02-11T11:31:00,mfh,89.29
2023-02-11T11:32:00,mfh,89.45
2023-02-11T11:33:00,mfh,89.34
2023-02-11T11:34:00,mfh,89.29
2023-02-11T11:35:00,mfh,89.31
2023-02-11T11:36:00,mfh,89.48
2023-02-11T11:37:00,mfh,89.49
2023-02-11T11:38:00,mfh,89.53
2023-02-11T11:39:00,mfh,89.50
2023-02-11T11:40:00,mfh,89.49
2023-02-11T11:41:00,mfh,89.61
2023-02-11T11:42:00,mfh,89.55
2023-02-11T11:43:00,mfh,89.52
2023-02-11T11:44:00,mfh,89.65
2023-02-11T11:45:00,mfh,89.54
2023-02-11T11:46:00,mfh,89.42
2023-02-11T11:47:00,mfh,89.48
2023-02-11T11:48:00,mfh,89.56
2023-02-11T11:49:00,mfh,89.56
2023-02-11T11:50:00,mfh,89.67
2023-02-11T11:51:00,mfh,89.48
2023-02-11T11:52:00,mfh,89.54
2023-02-11T11:53:00,mfh,89.67
2023-02-11T11:54:00,mfh,89.73
2023-02-11T11:55:00,mfh,89.74
2023-02-11T11:56:00,mfh,89.66
2023-02-11T11:57:00,mfh,89.55
2023-02-11T11:58:00,mfh,89.59
2023-02-11T11:59:00,mfh,89.57
2023-02-11T12:00:00,mfh,89.43
2023-02-11T12:01:00,mfh,89.52
2023-02-11T12:02:00,mfh,89.55
2023-02-11T12:03:00,mfh,89.64
2023-02-11T12:04:00,mfh,89.99
2023-02-11T12:05:00,mfh,89.69
2023-02-11T12:06:00,mfh,89.34
2023-02-11T12:07:00,mfh,89.49
2023-02-11T12:08:00,mfh,89.54
2023-02-11T12:09:00,mfh,89.53
2023-02-11T12:10:00,mfh,89.64
2023-02-11T12:11:00,mfh,89.44
2023-02-11T12:12:00,mfh,89.45
2023-02-11T12:13:00,mfh,89.43
2023-02-11T12:14:00,mfh,89.34
2023-02-11T12:15:00,mfh,89.26
2023-02-11T12:16:00,mfh,89.21
2023-02-11T12:17:00,mfh,89.38
2023-02-11T12:18:00,mfh,89.52
2023-02-11T12:19:00,mfh,89.44
2023-02-11T12:20:00,mfh,89.35
2023-02-11T12:21:00,mfh,89.36
2023-02-11T12:22:00,mfh,89.32
2023-02-11T12:23:00,mfh,89.20
2023-02-11T12:24:00,mfh,89.36
2023-02-11T12:25:00,mfh,89.14
2023-02-11T12:26:00,mfh,89.14
2023-02-11T12:27:00,mfh,89.04
2023-02-11T12:28:00,mfh,89.23
2023-02-11T12:29:00,mfh,89.06
2023-02-11T12:30:00,mfh,89.02
2023-02-11T12:31:00,mfh,89.15
2023-02-11T12:32:00,mfh,89.33
2023-02-11T12:33:00,mfh,88.97
2023-02-11T12:34:00,mfh,88.76
2023-02-11T12:35:00,mfh,88.90
2023-02-11T12:36:00,mfh,89.01
2023-02-11T12:37:00,mfh,88.94
2023-02-11T12:38:00,mfh,88.96
2023-02-11T12:39:00,mfh,88.81
2023-02-11T12:40:00,mfh,88.79
2023-02-11T12:41:00,mfh,88.70
2023-02-11T12:42:00,mfh,88.62
2023-02-11T12:43:00,mfh,88.67
2023-02-11T12:44:00,mfh,88.75
2023-02-11T12:45:00,mfh,88.83
2023-02-11T12:46:00,mfh,88.83
2023-02-11T12:47:00,mfh,88.80
2023-02-11T12:48:00,mfh,88.72
2023-02-11T12:49:00,mfh,88.93
2023-02-11T12:50:00,mfh,88.87
2023-02-11T12:51:00,mfh,88.76
2023-02-11T12:52:00,mfh,88.77
2023-02-11T12:53:00,mfh,88.77
2023-02-11T12:54:00,mfh,88.90
2023-02-11T12:55:00,mfh,88.69
2023-02-11T12:56:00,mfh,88.59
2023-02-11T12:57:00,mfh,88.68
2023-02-11T12:58:00,mfh,88.75
2023-02-11T12:59:00,mfh,88.75
2023-02-11T13:00:00,mfh,89.20
2023-02-11T13:01:00,mfh,88.91
2023-02-11T13:02:00,mfh,89.00
2023-02-11T13:03:00,mfh,88.93
2023-02-11T13:04:00,mfh,88.98
2023-02-11T13:05:00,mfh,88.89
2023-02-11T13:06:00,mfh,88.97
2023-02-11T13:07:00,mfh,88.80
2023-02-11T13:08:00,mfh,86.79
2023-02-11T13:09:00,mfh,86.81
2023-02-11T13:10:00,mfh,87.05
2023-02-11T13:11:00,mfh,87.38
2023-02-11T13:12:00,mfh,85.71
2023-02-11T13:13:00,mfh,85.73
2023-02-11T13:14:00,mfh,85.67
2023-02-11T13:15:00,mfh,85.66
2023-02-11T13:16:00,mfh,85.63
2023-02-11T13:17:00,mfh,85.69
2023-02-11T13:18:00,mfh,85.73